Weather Service Report


857 
ASCA42 TJSJ 281610
RWRPR 
PUERTO RICO/U.S. VIRGIN ISLANDS HOURLY WEATHER ROUNDUP
NATIONAL WEATHER SERVICE SAN JUAN PR
1200 PM AST TUE FEB 28 2017

PRZ001>002-007>008-010-281700-
PUERTO RICO
  
CITY           SKY/WX    TMP DP  RH WIND       PRES   REMARKS
SAN JUAN LMM   MOSUNNY   82  72  69 E21G26    30.13F                  
AGUADILLA      PTSUNNY   81  70  69 E20G28    30.14F                  
CEIBA          MOSUNNY   86  72  62 E13       30.15F HX  92           
$$

VIZ001>002-281700-
U.S. VIRGIN ISLANDS
  
CITY           SKY/WX    TMP DP  RH WIND       PRES   REMARKS
CHARLOTTE AMA  PTSUNNY   82  72  69 NE13G22   30.11F                  
CHRISTIANSTED  MOSUNNY   81  70  69 E16       30.11F                  
$$

HOURLY WEATHER ROUNDUP FOR THE NEWS MEDIA
  
CITY           SKY/WX    TMP DP  RH WIND       PRES   REMARKS
ORLANDO        MOSUNNY   80  69  69 S10       30.29F                  
NEW YORK       PTSUNNY   55  46  71 SE7       30.34F                  
NEWARK         MOSUNNY   56  37  49 E6        30.33F                  
CHICAGO        CLOUDY    53  49  86 S16       29.77F                  
HARTFORD       CLOUDY    50  38  63 S9        30.38F                  
BOSTON         CLOUDY    48  36  63 CALM      30.38F                  
DALLAS         CLOUDY    73  65  75 S8        29.92R HAZE             
PHILADELPHIA   PTSUNNY   58  43  57 CALM      30.30F                  
LOS ANGELES    MOSUNNY   54  29  38 N15G22    30.04R                  
WASHINGTON DC  MOSUNNY   61  34  36 SE5       30.26F                  

Return to Home page


Western Regional Climate Center, wrcc@dri.edu